DLH5EF EDDF-EGBB

Flight info

Callsign DLH5EF
Flight time 1h 29m
Altitude 38000
Route OBOKA3W/25C OBOKA Z29 TORNU DCT GALSO Q63 ERING L179 LAM L610 HEMEL
Aircraft A320/M-SDE2E3FGIJ1LORWXYZ/HB1

Departure

Time 2026-05-06 17:42
Airport Frankfurt Main Airport (EDDF)

Arrival

Time 2026-05-06 19:11
Airport Birmingham Airport (EGBB)
Time Latitude Longitude Altitude Speed Heading
2026-05-06 17:14 50.04561 8.56306 361 ft 0 kts 40°
2026-05-06 17:23 50.04562 8.56307 356 ft 0 kts 40°
2026-05-06 17:31 50.04552 8.56294 364 ft 4 kts 21°
2026-05-06 17:31 50.04527 8.56293 361 ft 4 kts 340°
2026-05-06 17:31 50.04507 8.56308 359 ft 4 kts 300°
2026-05-06 17:32 50.04506 8.56342 359 ft 4 kts 250°
2026-05-06 17:32 50.04514 8.56377 360 ft 2 kts 249°
2026-05-06 17:32 50.04515 8.56380 360 ft 0 kts 249°
2026-05-06 17:35 50.04515 8.56377 360 ft 1 kts 249°
2026-05-06 17:36 50.04505 8.56338 358 ft 5 kts 249°
2026-05-06 17:36 50.04488 8.56269 358 ft 9 kts 246°
2026-05-06 17:36 50.04460 8.56164 359 ft 12 kts 248°
2026-05-06 17:36 50.04422 8.56046 359 ft 11 kts 223°
2026-05-06 17:37 50.04342 8.56056 362 ft 15 kts 159°
2026-05-06 17:37 50.04292 8.56137 358 ft 9 kts 97°
2026-05-06 17:37 50.04246 8.56238 359 ft 15 kts 160°
2026-05-06 17:37 50.04154 8.56305 356 ft 17 kts 130°
2026-05-06 17:38 50.04182 8.56507 358 ft 23 kts 72°
2026-05-06 17:38 50.04238 8.56744 359 ft 25 kts 69°
2026-05-06 17:38 50.04304 8.57017 362 ft 27 kts 70°
2026-05-06 17:38 50.04367 8.57286 361 ft 26 kts 70°
2026-05-06 17:39 50.04406 8.57447 363 ft 9 kts 70°
2026-05-06 17:39 50.04416 8.57488 364 ft 0 kts 70°
2026-05-06 17:40 50.04420 8.57504 364 ft 6 kts 70°
2026-05-06 17:40 50.04417 8.57613 365 ft 13 kts 123°
2026-05-06 17:40 50.04346 8.57679 363 ft 13 kts 159°
2026-05-06 17:40 50.04277 8.57687 362 ft 8 kts 229°
2026-05-06 17:41 50.04252 8.57599 366 ft 18 kts 249°
2026-05-06 17:41 50.04114 8.57029 365 ft 92 kts 249°
2026-05-06 17:41 50.03816 8.55789 360 ft 149 kts 249°
2026-05-06 17:41 50.03438 8.54221 899 ft 155 kts 252°
2026-05-06 17:42 50.03061 8.52680 1733 ft 152 kts 253°
2026-05-06 17:42 50.02673 8.51075 2220 ft 169 kts 250°
2026-05-06 17:42 50.01980 8.49445 2573 ft 195 kts 227°
2026-05-06 17:42 50.00803 8.48276 3178 ft 208 kts 202°
2026-05-06 17:43 49.99379 8.47841 4099 ft 208 kts 191°
2026-05-06 17:43 49.97952 8.47528 5021 ft 206 kts 191°
2026-05-06 17:43 49.96526 8.47210 5854 ft 208 kts 192°
2026-05-06 17:43 49.95090 8.46645 6447 ft 223 kts 199°
2026-05-06 17:44 49.93536 8.45919 6794 ft 240 kts 200°
2026-05-06 17:44 49.92013 8.44783 7464 ft 244 kts 217°
2026-05-06 17:44 49.90768 8.42995 8385 ft 246 kts 232°
2026-05-06 17:44 49.89837 8.40754 9294 ft 249 kts 239°
2026-05-06 17:45 49.89019 8.38371 10117 ft 253 kts 249°
2026-05-06 17:45 49.88628 8.35726 10790 ft 265 kts 264°
2026-05-06 17:45 49.88699 8.32699 11105 ft 289 kts 273°
2026-05-06 17:45 49.88898 8.29513 11402 ft 313 kts 278°
2026-05-06 17:46 49.89535 8.26216 11977 ft 326 kts 292°
2026-05-06 17:46 49.90691 8.23146 12606 ft 335 kts 304°
2026-05-06 17:46 49.92072 8.20225 12783 ft 336 kts 304°
2026-05-06 17:46 49.93460 8.17319 12824 ft 335 kts 306°
2026-05-06 17:47 49.95065 8.14687 12824 ft 337 kts 317°
2026-05-06 17:47 49.96854 8.12323 12902 ft 340 kts 317°
2026-05-06 17:47 49.98659 8.09928 13698 ft 343 kts 317°
2026-05-06 17:47 50.00477 8.07507 14435 ft 345 kts 317°
2026-05-06 17:48 50.02308 8.05060 15156 ft 348 kts 317°
2026-05-06 17:48 50.04149 8.02588 15861 ft 351 kts 317°
2026-05-06 17:48 50.06005 8.00094 16555 ft 355 kts 317°
2026-05-06 17:48 50.07883 7.97569 17227 ft 358 kts 317°
2026-05-06 17:49 50.09779 7.95020 17922 ft 362 kts 317°
2026-05-06 17:49 50.11693 7.92442 18522 ft 366 kts 317°
2026-05-06 17:49 50.13621 7.89841 19109 ft 368 kts 317°
2026-05-06 17:49 50.15572 7.87212 19710 ft 372 kts 316°
2026-05-06 17:50 50.17532 7.84570 20322 ft 374 kts 317°
2026-05-06 17:50 50.19507 7.81906 20905 ft 377 kts 317°
2026-05-06 17:50 50.21493 7.79221 21474 ft 380 kts 316°
2026-05-06 17:50 50.23496 7.76508 22028 ft 383 kts 316°
2026-05-06 17:51 50.25631 7.73979 22561 ft 388 kts 326°
2026-05-06 17:51 50.28045 7.72023 23089 ft 394 kts 334°
2026-05-06 17:51 50.30567 7.70305 23585 ft 397 kts 334°
2026-05-06 17:51 50.33114 7.68572 24009 ft 401 kts 334°
2026-05-06 17:52 50.35681 7.66823 24434 ft 404 kts 334°
2026-05-06 17:52 50.38267 7.65056 24851 ft 407 kts 334°
2026-05-06 17:52 50.40870 7.63270 25276 ft 410 kts 334°
2026-05-06 17:52 50.43491 7.61467 25697 ft 413 kts 334°
2026-05-06 17:53 50.46132 7.59646 26106 ft 416 kts 334°
2026-05-06 17:53 50.48789 7.57813 26502 ft 419 kts 334°
2026-05-06 17:53 50.51463 7.55963 26895 ft 422 kts 334°
2026-05-06 17:53 50.54161 7.54097 27295 ft 425 kts 334°
2026-05-06 17:54 50.56787 7.51971 27677 ft 425 kts 326°
2026-05-06 17:54 50.59276 7.49436 28059 ft 427 kts 324°
2026-05-06 17:54 50.61772 7.46874 28436 ft 430 kts 324°
2026-05-06 17:54 50.64285 7.44292 28844 ft 433 kts 325°
2026-05-06 17:55 50.66806 7.41698 29344 ft 432 kts 325°
2026-05-06 17:55 50.68474 7.39981 29642 ft 433 kts 325°
2026-05-06 17:55 50.70984 7.37350 30018 ft 434 kts 322°
2026-05-06 17:55 50.73990 7.33093 30412 ft 435 kts 310°
2026-05-06 17:56 50.75259 7.30634 30604 ft 436 kts 304°
2026-05-06 17:56 50.76858 7.26571 30880 ft 437 kts 296°
2026-05-06 17:56 50.78245 7.22300 31154 ft 439 kts 295°
2026-05-06 17:56 50.79638 7.18002 31462 ft 440 kts 295°
2026-05-06 17:57 50.81034 7.13698 31881 ft 439 kts 295°
2026-05-06 17:57 50.82425 7.09411 32308 ft 438 kts 295°
2026-05-06 17:57 50.83813 7.05134 32731 ft 437 kts 295°
2026-05-06 17:57 50.85195 7.00865 33135 ft 436 kts 295°
2026-05-06 17:58 50.86577 6.96588 33540 ft 435 kts 295°
2026-05-06 17:58 50.87954 6.92327 33927 ft 435 kts 295°
2026-05-06 17:58 50.89324 6.88074 34270 ft 434 kts 295°
2026-05-06 17:58 50.90695 6.83805 34566 ft 434 kts 295°
2026-05-06 17:59 50.92059 6.79544 34845 ft 434 kts 295°
2026-05-06 17:59 50.93419 6.75293 35136 ft 434 kts 295°
2026-05-06 17:59 50.94791 6.71000 35403 ft 434 kts 295°
2026-05-06 17:59 50.96154 6.66728 35676 ft 434 kts 294°
2026-05-06 18:00 50.97516 6.62452 35944 ft 434 kts 294°
2026-05-06 18:00 50.98870 6.58183 36219 ft 434 kts 294°
2026-05-06 18:00 51.00232 6.53890 36453 ft 435 kts 294°
2026-05-06 18:00 51.01596 6.49593 36705 ft 435 kts 294°
2026-05-06 18:01 51.02955 6.45303 36948 ft 435 kts 294°
2026-05-06 18:01 51.04311 6.41004 37184 ft 435 kts 294°
2026-05-06 18:01 51.05664 6.36701 37416 ft 435 kts 294°
2026-05-06 18:01 51.07015 6.32404 37648 ft 435 kts 294°
2026-05-06 18:02 51.08371 6.28087 37847 ft 436 kts 294°
2026-05-06 18:02 51.09722 6.23779 37896 ft 435 kts 294°
2026-05-06 18:02 51.12392 6.15239 37900 ft 433 kts 294°
2026-05-06 18:03 51.14611 6.06390 37898 ft 429 kts 282°
2026-05-06 18:03 51.16095 5.97187 37893 ft 429 kts 282°
2026-05-06 18:04 51.17587 5.87972 37897 ft 429 kts 282°
2026-05-06 18:04 51.19162 5.78797 37913 ft 430 kts 285°
2026-05-06 18:05 51.21151 5.69776 37922 ft 432 kts 288°
2026-05-06 18:05 51.23253 5.60805 37910 ft 432 kts 288°
2026-05-06 18:06 51.25274 5.51778 37920 ft 432 kts 287°
2026-05-06 18:06 51.27222 5.42709 37921 ft 432 kts 287°
2026-05-06 18:07 51.29163 5.33622 37926 ft 432 kts 287°
2026-05-06 18:07 51.31110 5.24542 37933 ft 432 kts 287°
2026-05-06 18:08 51.33050 5.15461 37941 ft 432 kts 287°
2026-05-06 18:08 51.34982 5.06372 37935 ft 431 kts 287°
2026-05-06 18:09 51.36910 4.97298 37937 ft 431 kts 287°
2026-05-06 18:09 51.38809 4.88281 37936 ft 431 kts 287°
2026-05-06 18:10 51.40717 4.79168 37935 ft 431 kts 287°
2026-05-06 18:10 51.42614 4.70081 37944 ft 430 kts 287°
2026-05-06 18:11 51.44506 4.60986 37938 ft 430 kts 287°
2026-05-06 18:11 51.46395 4.51892 37935 ft 430 kts 287°
2026-05-06 18:12 51.48276 4.42783 37931 ft 430 kts 287°
2026-05-06 18:12 51.50144 4.33666 37943 ft 430 kts 287°
2026-05-06 18:13 51.52003 4.24555 37941 ft 429 kts 287°
2026-05-06 18:13 51.53850 4.15445 37938 ft 429 kts 286°
2026-05-06 18:14 51.55693 4.06335 37935 ft 429 kts 286°
2026-05-06 18:14 51.57537 3.97229 37933 ft 428 kts 286°
2026-05-06 18:15 51.59367 3.88115 37930 ft 428 kts 286°
2026-05-06 18:15 51.61182 3.78992 37940 ft 428 kts 286°
2026-05-06 18:16 51.62986 3.69874 37941 ft 427 kts 286°
2026-05-06 18:16 51.64770 3.60819 37947 ft 427 kts 286°
2026-05-06 18:17 51.66563 3.51701 37951 ft 427 kts 286°
2026-05-06 18:17 51.68355 3.42590 37954 ft 426 kts 286°
2026-05-06 18:18 51.70131 3.33486 37957 ft 426 kts 286°
2026-05-06 18:18 51.71891 3.24372 37966 ft 426 kts 285°
2026-05-06 18:19 51.72917 3.15052 37969 ft 421 kts 269°
2026-05-06 18:19 51.72299 3.05702 37966 ft 420 kts 262°
2026-05-06 18:20 51.71492 2.96373 37965 ft 420 kts 261°
2026-05-06 18:20 51.70673 2.87045 37965 ft 420 kts 261°
2026-05-06 18:21 51.69839 2.77726 37967 ft 420 kts 261°
2026-05-06 18:21 51.69005 2.68393 37972 ft 421 kts 261°
2026-05-06 18:22 51.68171 2.59055 37967 ft 421 kts 261°
2026-05-06 18:22 51.67330 2.49723 37971 ft 421 kts 261°
2026-05-06 18:23 51.66478 2.40388 37980 ft 421 kts 261°
2026-05-06 18:23 51.65622 2.31053 37981 ft 421 kts 261°
2026-05-06 18:24 51.64756 2.21721 37985 ft 422 kts 261°
2026-05-06 18:24 51.63883 2.12390 37981 ft 422 kts 261°
2026-05-06 18:25 51.63008 2.03058 37977 ft 422 kts 261°
2026-05-06 18:25 51.62144 1.93722 37977 ft 422 kts 261°
2026-05-06 18:26 51.61270 1.84387 37991 ft 422 kts 261°
2026-05-06 18:26 51.60400 1.75121 37987 ft 422 kts 261°
2026-05-06 18:27 51.59513 1.65794 37993 ft 422 kts 261°
2026-05-06 18:27 51.59274 1.56409 37996 ft 422 kts 274°
2026-05-06 18:28 51.59697 1.46985 37988 ft 422 kts 273°
2026-05-06 18:28 51.60092 1.37566 37986 ft 422 kts 273°
2026-05-06 18:29 51.60703 1.28187 37987 ft 423 kts 280°
2026-05-06 18:29 51.61852 1.18830 37718 ft 433 kts 281°
2026-05-06 18:30 51.62444 1.14083 37453 ft 434 kts 281°
2026-05-06 18:30 51.63036 1.09320 37180 ft 433 kts 281°
2026-05-06 18:30 51.63621 1.04591 36913 ft 430 kts 280°
2026-05-06 18:30 51.64197 0.99876 36652 ft 428 kts 280°
2026-05-06 18:31 51.64767 0.95193 36395 ft 425 kts 280°
2026-05-06 18:31 51.65330 0.90546 36147 ft 422 kts 280°
2026-05-06 18:31 51.65888 0.85919 35895 ft 419 kts 280°
2026-05-06 18:31 51.66439 0.81346 35509 ft 414 kts 280°
2026-05-06 18:32 51.66981 0.76812 35013 ft 410 kts 280°
2026-05-06 18:32 51.67516 0.72318 34515 ft 407 kts 280°
2026-05-06 18:32 51.68047 0.67846 34021 ft 405 kts 280°
2026-05-06 18:32 51.68572 0.63416 33477 ft 401 kts 280°
2026-05-06 18:33 51.69094 0.59024 32996 ft 396 kts 280°
2026-05-06 18:33 51.69599 0.54740 32525 ft 392 kts 280°
2026-05-06 18:33 51.70102 0.50453 32056 ft 388 kts 280°
2026-05-06 18:33 51.70598 0.46203 31589 ft 384 kts 280°
2026-05-06 18:34 51.71091 0.41995 31139 ft 380 kts 280°
2026-05-06 18:34 51.71579 0.37826 30693 ft 376 kts 280°
2026-05-06 18:34 51.72058 0.33711 30265 ft 372 kts 280°
2026-05-06 18:34 51.72532 0.29631 29801 ft 368 kts 280°
2026-05-06 18:35 51.72998 0.25602 29379 ft 363 kts 280°
2026-05-06 18:35 51.73455 0.21632 28977 ft 357 kts 279°
2026-05-06 18:35 51.73902 0.17724 28588 ft 352 kts 279°
2026-05-06 18:35 51.74341 0.13875 28203 ft 347 kts 279°
2026-05-06 18:36 51.74774 0.10076 27824 ft 342 kts 279°
2026-05-06 18:36 51.75198 0.06328 27438 ft 337 kts 279°
2026-05-06 18:36 51.75615 0.02628 27049 ft 333 kts 279°
2026-05-06 18:36 51.76027 -0.01033 26713 ft 330 kts 279°
2026-05-06 18:37 51.76436 -0.04664 26318 ft 327 kts 279°
2026-05-06 18:37 51.76704 -0.07047 26066 ft 325 kts 279°
2026-05-06 18:37 51.77242 -0.11833 25533 ft 322 kts 279°
2026-05-06 18:37 51.77638 -0.15377 25135 ft 320 kts 279°
2026-05-06 18:38 51.78030 -0.18908 24728 ft 318 kts 279°
2026-05-06 18:38 51.78418 -0.22423 24315 ft 317 kts 279°
2026-05-06 18:38 51.78802 -0.25926 23907 ft 316 kts 279°
2026-05-06 18:38 51.79182 -0.29418 23462 ft 316 kts 279°
2026-05-06 18:39 51.79563 -0.32907 22969 ft 314 kts 279°
2026-05-06 18:39 51.79979 -0.36353 22575 ft 311 kts 285°
2026-05-06 18:39 51.80773 -0.39580 22188 ft 310 kts 298°
2026-05-06 18:40 51.83633 -0.44868 21561 ft 327 kts 323°
2026-05-06 18:40 51.85575 -0.46825 21268 ft 330 kts 327°
2026-05-06 18:40 51.87548 -0.48735 20970 ft 330 kts 327°
2026-05-06 18:40 51.89509 -0.50639 20684 ft 328 kts 327°
2026-05-06 18:41 51.91459 -0.52537 20388 ft 326 kts 327°
2026-05-06 18:41 51.93407 -0.54433 20099 ft 325 kts 327°
2026-05-06 18:41 51.95338 -0.56316 19802 ft 323 kts 327°
2026-05-06 18:41 51.97262 -0.58195 19525 ft 322 kts 327°
2026-05-06 18:42 51.99182 -0.60070 19246 ft 321 kts 327°
2026-05-06 18:42 52.01090 -0.61934 18976 ft 319 kts 327°
2026-05-06 18:42 52.02983 -0.63785 18689 ft 317 kts 327°
2026-05-06 18:42 52.04866 -0.65633 18405 ft 316 kts 328°
2026-05-06 18:43 52.06740 -0.67471 18098 ft 313 kts 327°
2026-05-06 18:43 52.08608 -0.69304 17812 ft 313 kts 328°
2026-05-06 18:43 52.10463 -0.71130 17537 ft 312 kts 328°
2026-05-06 18:43 52.12311 -0.72953 17265 ft 310 kts 328°
2026-05-06 18:44 52.13527 -0.74152 17083 ft 308 kts 327°
2026-05-06 18:44 52.15360 -0.75960 16815 ft 307 kts 327°
2026-05-06 18:44 52.17768 -0.78342 16463 ft 305 kts 327°
2026-05-06 18:44 52.19580 -0.80137 16194 ft 304 kts 328°
2026-05-06 18:45 52.21389 -0.81929 15927 ft 304 kts 328°
2026-05-06 18:45 52.23089 -0.83932 15663 ft 300 kts 316°
2026-05-06 18:45 52.24417 -0.86537 15406 ft 299 kts 302°
2026-05-06 18:45 52.25065 -0.88566 15223 ft 299 kts 292°
2026-05-06 18:46 52.25637 -0.91823 14965 ft 298 kts 283°
2026-05-06 18:46 52.26076 -0.95072 14717 ft 296 kts 283°
2026-05-06 18:46 52.26526 -0.98347 14453 ft 295 kts 283°
2026-05-06 18:46 52.26980 -1.01628 14190 ft 296 kts 283°
2026-05-06 18:47 52.27435 -1.04906 13930 ft 296 kts 284°
2026-05-06 18:47 52.27887 -1.08173 13654 ft 294 kts 283°
2026-05-06 18:47 52.28332 -1.11419 13391 ft 292 kts 284°
2026-05-06 18:47 52.28772 -1.14646 13128 ft 291 kts 283°
2026-05-06 18:48 52.29208 -1.17874 12872 ft 291 kts 283°
2026-05-06 18:48 52.29640 -1.21092 12617 ft 289 kts 284°
2026-05-06 18:48 52.30069 -1.24282 12362 ft 287 kts 283°
2026-05-06 18:48 52.30497 -1.27469 12109 ft 288 kts 283°
2026-05-06 18:49 52.30922 -1.30637 11861 ft 285 kts 284°
2026-05-06 18:49 52.31346 -1.33796 11607 ft 286 kts 283°
2026-05-06 18:49 52.31771 -1.36967 11357 ft 285 kts 284°
2026-05-06 18:49 52.32193 -1.40119 11107 ft 283 kts 284°
2026-05-06 18:50 52.32616 -1.43261 10858 ft 283 kts 284°
2026-05-06 18:50 52.33037 -1.46399 10610 ft 282 kts 283°
2026-05-06 18:50 52.33454 -1.49537 10362 ft 282 kts 283°
2026-05-06 18:50 52.33868 -1.52671 10114 ft 282 kts 283°
2026-05-06 18:51 52.34277 -1.55794 9885 ft 280 kts 283°
2026-05-06 18:51 52.34685 -1.58899 9624 ft 278 kts 283°
2026-05-06 18:51 52.35091 -1.61984 9380 ft 278 kts 283°
2026-05-06 18:51 52.35492 -1.65070 9138 ft 276 kts 281°
2026-05-06 18:52 52.35603 -1.68195 8954 ft 276 kts 268°
2026-05-06 18:52 52.35477 -1.71329 8861 ft 276 kts 268°
2026-05-06 18:52 52.35359 -1.74460 8755 ft 276 kts 268°
2026-05-06 18:52 52.35244 -1.77586 8641 ft 275 kts 268°
2026-05-06 18:53 52.35128 -1.80704 8527 ft 274 kts 268°
2026-05-06 18:53 52.35013 -1.83816 8414 ft 274 kts 268°
2026-05-06 18:53 52.34897 -1.86916 8299 ft 273 kts 268°
2026-05-06 18:53 52.34778 -1.90019 8157 ft 273 kts 268°
2026-05-06 18:54 52.34661 -1.93104 8033 ft 272 kts 268°
2026-05-06 18:54 52.34543 -1.96142 7932 ft 261 kts 268°
2026-05-06 18:54 52.34429 -1.99032 7826 ft 247 kts 268°
2026-05-06 18:54 52.34321 -2.01722 7732 ft 229 kts 268°
2026-05-06 18:55 52.34217 -2.04313 7639 ft 227 kts 268°
2026-05-06 18:55 52.34175 -2.06872 7564 ft 224 kts 279°
2026-05-06 18:55 52.34672 -2.09250 7517 ft 222 kts 303°
2026-05-06 18:55 52.35721 -2.11064 7467 ft 221 kts 326°
2026-05-06 18:56 52.37135 -2.12015 7415 ft 219 kts 349°
2026-05-06 18:56 52.38630 -2.11934 7365 ft 217 kts 13°
2026-05-06 18:56 52.39985 -2.10850 7316 ft 220 kts 37°
2026-05-06 18:56 52.40961 -2.08919 7266 ft 224 kts 62°
2026-05-06 18:57 52.41366 -2.06453 7217 ft 227 kts 87°
2026-05-06 18:57 52.41135 -2.03888 7173 ft 230 kts 103°
2026-05-06 18:57 52.40736 -2.01352 7117 ft 230 kts 103°
2026-05-06 18:57 52.40331 -1.98820 7066 ft 230 kts 104°
2026-05-06 18:58 52.39925 -1.96281 7010 ft 231 kts 103°
2026-05-06 18:58 52.39520 -1.93739 6957 ft 231 kts 103°
2026-05-06 18:58 52.39117 -1.91175 6748 ft 236 kts 102°
2026-05-06 18:58 52.38724 -1.88537 6299 ft 242 kts 102°
2026-05-06 18:59 52.38327 -1.85832 5855 ft 247 kts 102°
2026-05-06 18:59 52.37926 -1.83099 5375 ft 246 kts 102°
2026-05-06 18:59 52.37528 -1.80417 4944 ft 239 kts 102°
2026-05-06 18:59 52.37139 -1.77806 4511 ft 235 kts 103°
2026-05-06 19:00 52.36755 -1.75236 4084 ft 230 kts 102°
2026-05-06 19:00 52.36378 -1.72719 3679 ft 226 kts 102°
2026-05-06 19:00 52.36014 -1.70249 3275 ft 220 kts 98°
2026-05-06 19:00 52.36144 -1.67898 2880 ft 209 kts 61°
2026-05-06 19:01 52.37223 -1.66370 2449 ft 208 kts 18°
2026-05-06 19:01 52.38659 -1.66546 1954 ft 216 kts 334°
2026-05-06 19:01 52.39735 -1.68235 1620 ft 215 kts 311°
2026-05-06 19:01 52.40831 -1.69821 1502 ft 218 kts 331°
2026-05-06 19:02 52.42049 -1.71349 2513 ft 223 kts 322°
2026-05-06 19:02 52.43238 -1.72982 2866 ft 215 kts 326°
2026-05-06 19:02 52.44414 -1.74382 2982 ft 210 kts 327°
2026-05-06 19:02 52.45594 -1.75750 3007 ft 207 kts 327°
2026-05-06 19:03 52.46780 -1.77091 3009 ft 206 kts 330°
2026-05-06 19:03 52.48092 -1.77930 3011 ft 203 kts 351°
2026-05-06 19:03 52.49469 -1.77644 3009 ft 198 kts 29°
2026-05-06 19:03 52.50406 -1.76086 3011 ft 198 kts 65°
2026-05-06 19:04 52.50563 -1.73870 3009 ft 202 kts 102°
2026-05-06 19:04 52.49848 -1.71905 3011 ft 206 kts 136°
2026-05-06 19:04 52.48693 -1.70507 3014 ft 207 kts 144°
2026-05-06 19:04 52.47481 -1.69229 2981 ft 208 kts 145°
2026-05-06 19:05 52.46241 -1.67966 2724 ft 210 kts 146°
2026-05-06 19:05 52.45003 -1.66702 2463 ft 209 kts 146°
2026-05-06 19:05 52.43769 -1.65441 2204 ft 209 kts 146°
2026-05-06 19:05 52.42543 -1.64195 2033 ft 204 kts 145°
2026-05-06 19:06 52.41360 -1.63012 1995 ft 193 kts 146°
2026-05-06 19:06 52.40236 -1.61899 2008 ft 186 kts 146°
2026-05-06 19:06 52.39131 -1.60815 2018 ft 184 kts 146°
2026-05-06 19:06 52.38023 -1.59765 2015 ft 185 kts 153°
2026-05-06 19:07 52.36738 -1.59585 2007 ft 193 kts 193°
2026-05-06 19:07 52.35679 -1.60791 1992 ft 181 kts 239°
2026-05-06 19:07 52.35423 -1.62644 2014 ft 162 kts 281°
2026-05-06 19:07 52.35866 -1.64179 2020 ft 144 kts 317°
2026-05-06 19:08 52.36650 -1.65120 2022 ft 138 kts 330°
2026-05-06 19:08 52.37443 -1.65997 1997 ft 138 kts 331°
2026-05-06 19:08 52.38240 -1.66878 1893 ft 138 kts 331°
2026-05-06 19:08 52.39038 -1.67761 1758 ft 137 kts 332°
2026-05-06 19:09 52.39826 -1.68635 1564 ft 136 kts 331°
2026-05-06 19:09 52.40610 -1.69503 1381 ft 135 kts 330°
2026-05-06 19:09 52.41391 -1.70368 1183 ft 136 kts 330°
2026-05-06 19:09 52.42171 -1.71231 981 ft 135 kts 328°
2026-05-06 19:10 52.42937 -1.72117 764 ft 134 kts 328°
2026-05-06 19:10 52.43710 -1.72972 564 ft 133 kts 331°
2026-05-06 19:10 52.44481 -1.73810 409 ft 133 kts 328°
2026-05-06 19:10 52.45223 -1.74623 330 ft 118 kts 327°
2026-05-06 19:11 52.45779 -1.75239 323 ft 72 kts 326°
2026-05-06 19:11 52.46066 -1.75555 310 ft 25 kts 326°
2026-05-06 19:11 52.46151 -1.75586 310 ft 10 kts 36°
2026-05-06 19:11 52.46207 -1.75485 307 ft 14 kts 60°
2026-05-06 19:12 52.46166 -1.75341 303 ft 16 kts 145°
2026-05-06 19:12 52.46067 -1.75230 306 ft 18 kts 146°
2026-05-06 19:12 52.45959 -1.75109 305 ft 20 kts 146°
2026-05-06 19:12 52.45839 -1.74978 308 ft 21 kts 146°
2026-05-06 19:13 52.45715 -1.74840 312 ft 21 kts 146°
2026-05-06 19:13 52.45599 -1.74710 318 ft 18 kts 146°
2026-05-06 19:13 52.45495 -1.74593 323 ft 19 kts 142°
2026-05-06 19:13 52.45423 -1.74403 321 ft 21 kts 117°
2026-05-06 19:14 52.45343 -1.74233 323 ft 19 kts 149°
2026-05-06 19:14 52.45234 -1.74108 324 ft 19 kts 146°
2026-05-06 19:14 52.45124 -1.73985 324 ft 20 kts 146°
2026-05-06 19:14 52.45039 -1.73875 324 ft 13 kts 118°
2026-05-06 19:15 52.45077 -1.73743 324 ft 14 kts 39°
2026-05-06 19:15 52.45148 -1.73715 322 ft 11 kts 331°
2026-05-06 19:15 52.45174 -1.73743 324 ft 2 kts 324°
2026-05-06 19:15 52.45178 -1.73748 324 ft 0 kts 325°